Selinsgrove, PA

8:44 AM EDT on September 18, 2019 (GMT -0400)
Penn Valley

Weather History for KSEG - August, 2019

Change the Weather History Date:

Wednesday, August 21, 2019

  Actual Average (KIPT) Record (KIPT)
Temperature  
Mean Temperature 78 °F -  
Max Temperature 87 °F 79 °F 97 °F (1916)
Min Temperature 71 °F 59 °F 42 °F (1941)
Cooling Degree Days 14    
Growing Degree Days 28 (Base 50)    
Moisture  
Dew Point 70 °F    
Average Humidity 82    
Maximum Humidity 97    
Minimum Humidity 60    
Precipitation  
Precipitation 0.03 in - - ()
Sea Level Pressure  
Sea Level Pressure 29.92 in    
Wind  
Wind Speed 3 mph (SSW)    
Max Wind Speed 8 mph    
Max Gust Speed -    
Visibility 9 miles    
Events Rain    
Averages and records for this station are not official NWS values.
T = Trace of Precipitation, MM = Missing Value Source: NWS Daily Summary

Daily Weather History Graph

Daily Weather History Graph

Search for Another Location

Airport or City:

Astronomy

Aug. 21, 2019 Rise Set
Actual Time 6:23 AM EDT 7:57 PM EDT
Civil Twilight 5:54 AM EDT 8:26 PM EDT
Nautical Twilight 5:19 AM EDT 9:00 PM EDT
Astronomical Twilight 4:42 AM EDT 9:37 PM EDT
Moon 11:11 PM EDT (8/21) 11:59 AM EDT (8/21)
Length of Visible Light 14h 31m
Length of Day
13h 33m
Waning Gibbous, 69% of the Moon is Illuminated
Aug 21
Waning Gibbous
Aug 23
Last Quarter
Aug 30
New
Sep 5
First Quarter
Sep 14
Full

Hourly Weather History & Observations

Time (EDT) Temp. Heat Index Dew Point Humidity Pressure Visibility Wind Dir Wind Speed Gust Speed Precip Events Conditions
12:53 AM 73.0 °F - 69.1 °F 87% 30.01 in 10.0 mi SSW 3.5 mph - N/A   Partly Cloudy
1:53 AM 72.0 °F - 69.1 °F 91% 30.00 in 10.0 mi Calm Calm - N/A   Clear
2:53 AM 73.0 °F - 68.0 °F 84% 29.98 in 10.0 mi Calm Calm - N/A   Clear
3:53 AM 72.0 °F - 68.0 °F 87% 29.97 in 10.0 mi Variable 3.5 mph - N/A   Partly Cloudy
4:53 AM 71.1 °F - 68.0 °F 90% 29.94 in 10.0 mi Variable 3.5 mph - N/A   Clear
5:53 AM 72.0 °F - 68.0 °F 87% 29.94 in 10.0 mi Calm Calm - N/A   Clear
6:53 AM 71.1 °F - 68.0 °F 90% 29.94 in 10.0 mi SSE 5.8 mph - N/A   Scattered Clouds
7:53 AM 72.0 °F - 68.0 °F 87% 29.96 in 10.0 mi Calm Calm - N/A   Mostly Cloudy
8:53 AM 73.0 °F - 69.1 °F 87% 29.96 in 10.0 mi South 3.5 mph - N/A   Partly Cloudy
9:53 AM 73.0 °F - 70.0 °F 90% 29.96 in 3.0 mi SSW 3.5 mph - 0.02 in Rain Light Rain
10:53 AM 75.9 °F - 70.0 °F 82% 29.94 in 10.0 mi Calm Calm - 0.00 in   Partly Cloudy
11:53 AM 81.0 °F 85.2 °F 72.0 °F 74% 29.92 in 10.0 mi Variable 3.5 mph - N/A   Clear
12:53 PM 82.0 °F 85.9 °F 70.0 °F 67% 29.89 in 10.0 mi Variable 3.5 mph - N/A   Scattered Clouds
1:53 PM 82.9 °F 88.0 °F 72.0 °F 69% 29.90 in 10.0 mi South 8.1 mph - N/A   Mostly Cloudy
2:53 PM 86.0 °F 91.5 °F 71.1 °F 61% 29.88 in 10.0 mi Variable 6.9 mph - N/A   Partly Cloudy
3:53 PM 84.9 °F 89.4 °F 70.0 °F 61% 29.87 in 9.0 mi Variable 3.5 mph - N/A   Scattered Clouds
4:53 PM 82.9 °F 85.8 °F 68.0 °F 60% 29.86 in 10.0 mi Variable 4.6 mph - N/A   Scattered Clouds
5:53 PM 82.0 °F 86.3 °F 71.1 °F 69% 29.86 in 10.0 mi Calm Calm - N/A   Mostly Cloudy
6:53 PM 80.1 °F 84.2 °F 73.0 °F 79% 29.85 in 10.0 mi Calm Calm - N/A   Partly Cloudy
7:53 PM 78.1 °F - 71.1 °F 79% 29.86 in 9.0 mi WNW 8.1 mph - 0.00 in Rain Light Rain
8:53 PM 73.9 °F - 72.0 °F 93% 29.88 in 10.0 mi North 3.5 mph - 0.01 in   Mostly Cloudy
9:53 PM 72.0 °F - 71.1 °F 97% 29.90 in 5.0 mi SE 3.5 mph - N/A   Partly Cloudy
10:53 PM 71.1 °F - 69.1 °F 93% 29.89 in 7.0 mi North 3.5 mph - N/A   Clear
11:53 PM 71.1 °F - 69.1 °F 93% 29.90 in 10.0 mi Calm Calm - N/A   Clear